Other Public Products
Issued by NWS Charleston, SC

Current Version | Previous Version | Text Only | Print | Product List | Glossary Off
Versions: 1 2 3 4 5 6 7 8 9 10 11 12 13 14 15 16 17 18 19 20 21 22 23 24 25 26 27 28 29 30 31 32 33 34 35 36 37 38 39 40 41 42 43 44 45 46 47 48 49 50
000 FPUS82 KCHS 190538 OPUCHS TEST...KCHS/KSAV Gateway Observations...TEST National Weather Service Charleston SC 100 AM EDT TUE SEP 19 2017 NOTE: "fair" indicates few or no clouds below 12,000 feet with no significant weather and/or obstructions to visibility. SCZ050-WAZ558-NCZ071-TXZ119-213-PAZ071-DCZ001-FLZ074-172-MI076- NYZ176-178-MAZ016-IL014-TNZ027-NJZ106-GAZ044-MD014-190600- ...Gateway Observations for Charleston International... CITY SKY/WX TMP DP RH WIND PRES REMARKS Chas Airport CLEAR 72 72 100 CALM 29.97F Seattle CLOUDY 52 47 83 S13 29.71F Charlotte PTCLDY 69 68 96 CALM 30.03S Dallas DFW PTCLDY 82 71 69 S16 29.91S Dallas Love PTCLDY 82 71 69 S10 29.92S Philladelphia CLOUDY 72 66 81 NE14 30.03F Wash National MOCLDY 70 68 93 N7 30.02F Baltimore PTCLDY 68 67 96 NE6 30.03S Miami PTCLDY 82 76 81 N5 29.92S Detroit CLOUDY 66 59 78 NE6 30.04F Newark CLOUDY 72 67 84 NE12 30.06F Laguardia CLOUDY 71 67 87 NE14 30.06F J F K CLOUDY 72 67 84 NE15 30.07S Boston Logan FOG 63 63 100 NE9 30.16F VSB 1/4 Ft. Lauderdale MOCLDY 80 77 90 NW5 29.91S Chicago O`Hare CLOUDY 67 59 75 NE7 29.98F Chicago Midway CLOUDY 68 62 81 NE7 29.98F Houston Bush MOCLDY 75 73 93 S3 29.94S Houston Hobby PTCLDY 78 74 87 E3 29.94S Nashville PTCLDY 70 67 90 CALM 30.00S Atlanta PTCLDY 71 64 78 NW3 30.01F $$ GAZ044-118-TXZ119-213-NCZ071-DCZ001-MDZ014-506-PAZ021-071-NJZ106- NYZ176-178-MAZ106-OHZ011-021-055-MIZ076-KYZ091-ILZ014-INZ047- MNZ060-ONZ431-190600- ...Gateway Observations for Savannah International... CITY SKY/WX TMP DP RH WIND PRES REMARKS Savannah Arpt CLEAR 74 70 87 CALM 29.98F Atlanta PTCLDY 71 64 78 NW3 30.01F Charlotte PTCLDY 69 68 96 CALM 30.03S Dallas DFW PTCLDY 82 71 69 S16 29.91S Houston Bush MOCLDY 75 73 93 S3 29.94S Wash National MOCLDY 70 68 93 N7 30.02F Wash Dulles PTCLDY 68 67 96 N7 30.04F Baltimore PTCLDY 68 67 96 NE6 30.03S Philadelphia CLOUDY 72 66 81 NE14 30.03F Newark CLOUDY 72 67 84 NE12 30.06F Laguardia CLOUDY 71 67 87 NE14 30.06F J F K CLOUDY 72 67 84 NE15 30.07S Boston FOG 63 63 100 NE9 30.16F VSB 1/4 Pittsburg CLEAR 66 63 90 CALM 30.05F Akron CLEAR 67 61 81 E3 30.05F Cleveland MOCLDY 73 65 75 N5 30.04F Cincinnati MOCLDY 70 67 90 S5 30.00F Columbus CLOUDY 68 66 93 CALM 30.01F Detroit CLOUDY 66 59 78 NE6 30.04F Chicago O`Hare CLOUDY 67 59 75 NE7 29.98F Minneapolis CLOUDY 59 57 93 SE8 29.96S Indianapolis PTCLDY 70 68 93 SE5 29.97F Toronto Canada MOCLDY 68 64 88 N7 30.04S $$

USA.gov is the U.S. government's official web portal to all federal, state and local government web resources and services.